Powrót do katalogu

BREEZE-M DEB

AktywnyHEO
NORAD 32036·DEBRIS·🇷🇺 Russia

Wystrzelony Feb 28, 2006 z Baikonur Cosmodrome

Loading…

Następne Przeloty (najbliższe 24 godziny)

TLE

ŚwieżeSource: Space-Track

Epoka: Sep 14, 2026, 02:56 UTC

1 32036U 06006P   26257.12244619  .00000817  00000-0  90724-3 0  9998
2 32036  51.6709  57.4025 5090360 102.0176 317.2315  5.29611537375227

Śledź BREEZE-M DEB w czasie rzeczywistym z AllMySat

Download on the App Store